Barrow, AK

3:02 PM AKDT on July 26, 2017 (GMT -0800)
Wiley Post-Will Rogers Memorial

Weather History for PABR - January, 2013

Change the Weather History Date:

Monday, January 7, 2013

  Actual Average Record
Temperature  
Mean Temperature -4 °F -12 °F  
Max Temperature 0 °F -6 °F 31 °F (2005)
Min Temperature -8 °F -19 °F -47 °F (1951)
Degree Days  
Heating Degree Days 69 78  
Month to date heating degree days 470 539  
Since 1 July heating degree days 7846 8748  
Cooling Degree Days 0 0  
Month to date cooling degree days 0 0  
Year to date cooling degree days 0 0  
Moisture  
Dew Point -9 °F    
Average Humidity 0    
Maximum Humidity 86    
Minimum Humidity 77    
Precipitation  
Precipitation T in 0.00 in 0.07 in (1982)
Month to date precipitation 0.01 0.03  
Year to date precipitation 0.01 0.03  
Snow  
Snow 0.10 in 0.10 in 1.00 in (1987)
Month to date snowfall 0.7 0.6  
Since 1 July snowfall 38.3 24.4  
Snow Depth 6.00 in    
Sea Level Pressure  
Sea Level Pressure 29.90 in    
Wind  
Wind Speed 11 mph (NE)    
Max Wind Speed 17 mph    
Max Gust Speed 21 mph    
Visibility 6 miles    
Events Snow    
T = Trace of Precipitation, MM = Missing Value Source: NWS Daily Summary

Daily Weather History Graph

Daily Weather History Graph

Search for Another Location

Airport or City:

Trip Planner

Search our weather history database for the weather conditions in past years. The results will help you decide how hot, cold, wet, or windy it might be!

Date:

Astronomy

Dec. 31, 1969 Rise Set
Actual Time Sun does not set Sun does not set
Civil Twilight 11:29 AM AKST 3:38 PM AKST
Nautical Twilight 9:35 AM AKST 5:31 PM AKST
Astronomical Twilight 8:12 AM AKST 6:55 PM AKST
Moon 8:57 AM AKST (1/7) 9:59 AM AKST (1/7)
Length of Visible Light 4h 09m
Length of Day
0h 00m
Waning Crescent, 21% of the Moon is Illuminated
Jan 7
Waning Crescent
Jan 11
New
Jan 18
First Quarter
Jan 26
Full
Feb 3
Last Quarter

Hourly Weather History & Observations

Time (AKST) Temp. Windchill Dew Point Humidity Pressure Visibility Wind Dir Wind Speed Gust Speed Precip Events Conditions
12:53 AM -7.1 °F -25.9 °F -11.0 °F 83% 29.91 in 7.0 mi NE 11.5 mph - N/A   Mostly Cloudy
1:53 AM -8.0 °F -28.0 °F -11.9 °F 83% 29.90 in 7.0 mi NE 12.7 mph - N/A   Mostly Cloudy
2:22 AM -7.6 °F -25.7 °F -11.2 °F 84% 29.90 in 7.0 mi NE 10.4 mph - N/A Snow Light Snow
2:53 AM -7.6 °F -28.3 °F -11.2 °F 84% 29.89 in 3.0 mi NE 13.8 mph - N/A Snow Light Snow
3:53 AM -7.1 °F -25.0 °F -11.0 °F 83% 29.89 in 7.0 mi NE 10.4 mph - 0.00 in Snow Light Snow
4:53 AM -6.0 °F -25.5 °F -11.0 °F 79% 29.89 in 6.0 mi NE 12.7 mph - 0.00 in Snow Light Snow
5:50 AM -5.8 °F -26.0 °F -11.2 °F 77% 29.87 in 4.0 mi NE 13.8 mph - 0.00 in Snow Light Snow
5:53 AM -6.0 °F -25.5 °F -11.0 °F 79% 29.88 in 6.0 mi NE 12.7 mph - 0.00 in Snow Light Snow
6:53 AM -7.1 °F -22.8 °F -11.0 °F 83% 29.88 in 8.0 mi NE 8.1 mph - 0.00 in Snow Light Snow
7:10 AM -7.6 °F -24.6 °F - N/A% 29.88 in 9.0 mi NE 9.2 mph - 0.00 in Snow Light Snow
7:53 AM -8.0 °F -27.1 °F - N/A% 29.88 in 4.0 mi ENE 11.5 mph - 0.00 in Snow Light Snow
8:00 AM -7.6 °F -26.6 °F - N/A% 29.88 in 6.0 mi ENE 11.5 mph - 0.00 in Snow Light Snow
8:53 AM -7.1 °F -25.9 °F -10.3 °F 86% 29.88 in 3.0 mi ENE 11.5 mph - 0.00 in Snow Light Snow
9:00 AM -5.8 °F -25.2 °F -9.4 °F 84% 29.88 in 1.5 mi NE 12.7 mph - 0.00 in Snow Light Snow
9:11 AM -5.8 °F -26.0 °F -9.4 °F 84% 29.88 in 4.0 mi NE 13.8 mph - 0.00 in Snow Light Snow
9:37 AM -5.8 °F -23.4 °F -9.4 °F 84% 29.88 in 4.0 mi ENE 10.4 mph - 0.00 in Snow Light Snow
9:53 AM -6.0 °F -24.6 °F -10.3 °F 82% 29.89 in 3.0 mi ENE 11.5 mph - 0.00 in Snow Light Snow
10:53 AM -4.9 °F -25.6 °F -8.5 °F 84% 29.89 in 3.0 mi NE 15.0 mph - 0.00 in Snow Light Snow
11:53 AM -4.9 °F -24.9 °F -9.0 °F 82% 29.89 in 7.0 mi NE 13.8 mph - 0.00 in   Scattered Clouds
12:53 PM -6.0 °F -24.6 °F -10.7 °F 80% 29.91 in 10.0 mi NE 11.5 mph - N/A   Scattered Clouds
1:53 PM -6.0 °F -22.6 °F -11.0 °F 79% 29.91 in 6.0 mi NE 9.2 mph - 0.00 in Snow Light Snow
2:00 PM -5.8 °F -21.2 °F - N/A% 29.91 in 5.0 mi NE 8.1 mph - 0.00 in Snow Light Snow
2:23 PM -4.0 °F -20.2 °F - N/A% 29.90 in 2.5 mi NE 9.2 mph - 0.00 in Snow Light Snow
2:50 PM -4.0 °F -19.0 °F -7.6 °F 85% 29.90 in 4.0 mi NE 8.1 mph - 0.00 in Snow Light Snow
2:53 PM -4.0 °F -20.2 °F -8.0 °F 83% 29.91 in 4.0 mi NE 9.2 mph - 0.00 in Snow Light Snow
3:53 PM -4.0 °F -19.0 °F -8.0 °F 83% 29.91 in 7.0 mi NE 8.1 mph - 0.00 in Snow Light Snow
4:53 PM -4.0 °F -19.0 °F -8.0 °F 83% 29.91 in 7.0 mi NE 8.1 mph - 0.00 in Snow Light Snow
5:53 PM -2.0 °F -15.4 °F -6.0 °F 83% 29.91 in 5.0 mi NE 6.9 mph - 0.00 in Snow Light Snow
6:00 PM -2.2 °F -15.6 °F -5.8 °F 85% 29.91 in 7.0 mi NE 6.9 mph - 0.00 in Snow Light Snow
6:53 PM -0.9 °F -15.3 °F -5.1 °F 83% 29.92 in 7.0 mi NE 8.1 mph - 0.00 in   Overcast
7:53 PM -0.0 °F -16.3 °F -5.1 °F 79% 29.92 in 8.0 mi NE 10.4 mph - 0.00 in   Overcast
8:53 PM -0.0 °F -16.3 °F -4.0 °F 83% 29.94 in 9.0 mi NE 10.4 mph - 0.00 in Snow Light Snow
9:53 PM -2.0 °F -19.6 °F -6.0 °F 83% 29.94 in 10.0 mi NE 11.5 mph - 0.00 in   Overcast
10:53 PM -2.9 °F -19.8 °F -7.1 °F 82% 29.96 in 10.0 mi NE 10.4 mph - N/A   Overcast
11:53 PM -4.0 °F -17.8 °F -8.0 °F 83% 29.96 in 10.0 mi NE 6.9 mph - N/A   Partly Cloudy